Temp
75 74 74 73 74 74 74 74 73 74 74 75 75 74 73 73 73 73 72 72 72 72 71 72 72 75 72 74 73 72 71 70
73 74 72 72 72 72 72 72 73 73 73 73 76 74 73 73 74 73 71 70 69 69 70 70 70 71 70 70 69 69 69 69
69 72 71 72 71 71 71 72 72 72 73 74 74 74 74 74 73 73 73 72 71 70 71 70 70 70 69 69 68 68 67 68
69 68 70 71 71 71 70 72 72 70 71 73 74 74 74 73 74 75 74 72 71 71 71 71 71 70 69 69 69 68 69 69
65 68 68 70 71 72 70 72 72 72 72 71 71 73 75 74 74 73 73 72 70 70 70 70 71 71 70 69 69 67 66 67
65 67 69 71 71 70 71 76 73 69 70 72 72 72 71 70 71 71 73 72 72 71 70 69 69 68 68 67 66 66 66 65
65 68 68 69 70 71 71 72 72 67 70 70 71 71 70 71 71 70 71 72 72 70 69 68 69 67 66 66 63 64 63 62
67 67 69 69 69 72 70 67 65 67 69 68 70 71 69 69 69 70 71 72 72 70 66 67 66 64 64 63 62 62 63 62
67 67 68 69 68 65 64 65 65 66 66 67 68 66 67 68 67 70 71 71 71 68 65 64 64 63 62 62 61 61 60 61
65 65 67 67 66 65 65 65 66 67 67 68 69 67 66 68 68 69 70 71 69 67 65 63 62 61 61 60 60 58 58 59
65 65 65 65 64 65 66 66 66 67 69 66 65 66 65 63 63 63 65 68 69 67 65 63 63 62 60 60 60 59 57 56
65 66 64 65 65 63 63 67 66 68 67 65 65 63 61 59 59 61 61 64 64 65 66 66 66 63 64 63 63 58 55 53
64 65 60 61 62 60 60 61 61 62 62 63 62 60 59 58 58 60 60 60 62 63 62 61 59 59 59 59 59 58 57 58
60 61 60 59 60 59 59 60 59 60 60 60 59 59 58 58 56 57 56 56 56 58 60 57 56 56 56 55 56 56 55 56
59 58 58 58 58 58 59 59 57 58 58 58 58 56 56 55 54 54 54 53 53 54 55 55 54 55 55 54 53 53 53 52
57 59 59 59 58 58 58 58 56 57 57 56 56 56 54 53 53 53 52 52 52 54 54 54 54 55 54 52 51 51 51 50
58 59 59 58 58 57 58 57 56 56 56 55 54 54 54 53 52 52 52 52 55 54 54 53 53 54 53 51 49 50 49 48
57 58 58 58 59 56 57 57 56 55 55 55 54 54 53 52 52 52 52 52 53 53 53 52 52 52 51 50 48 49 49 49
56 58 59 58 59 58 58 56 55 54 54 53 53 53 53 53 53 52 52 51 52 52 53 53 52 51 51 49 48 49 49 49
57 58 59 59 58 58 56 54 53 52 53 53 52 52 53 52 52 52 52 51 51 52 52 52 52 51 50 49 49 50 49 49
MSLP
1004.84 1005.71 1006.60 1007.24 1007.62 1008.15 1008.20 1008.26 1008.81 1009.08 1009.41 1009.69 1010.00 1010.28 1010.60 1010.87 1011.05 1011.52 1011.99 1012.38 1012.60 1012.70 1012.90 1013.15 1013.40 1013.36 1013.61 1013.75 1013.76 1013.94 1014.08 1014.20
1005.03 1005.59 1006.38 1007.19 1007.32 1007.59 1008.02 1008.18 1008.37 1008.60 1008.82 1009.60 1009.88 1010.28 1010.72 1010.99 1011.27 1011.50 1011.93 1012.27 1012.51 1012.67 1012.82 1012.90 1013.16 1013.25 1013.47 1013.71 1013.94 1013.91 1014.07 1014.17
1005.13 1005.74 1006.31 1006.74 1007.11 1007.42 1007.58 1007.81 1007.99 1008.24 1008.34 1007.94 1008.24 1008.68 1010.04 1010.45 1010.97 1011.50 1011.80 1012.09 1012.05 1012.11 1012.42 1012.62 1013.00 1013.13 1013.35 1013.68 1014.04 1014.20 1014.16 1014.13
1005.87 1006.20 1006.40 1006.69 1006.97 1007.02 1007.34 1007.57 1007.19 1007.40 1007.87 1007.75 1008.08 1009.29 1009.06 1009.67 1010.54 1011.19 1011.33 1011.88 1012.06 1011.95 1012.07 1012.41 1012.84 1013.29 1013.39 1013.44 1013.62 1013.84 1013.83 1013.77
1005.07 1005.34 1005.87 1006.02 1006.27 1006.38 1006.64 1006.81 1007.01 1006.85 1007.56 1008.20 1008.86 1009.32 1009.00 1009.39 1010.47 1011.00 1010.98 1011.27 1012.19 1011.72 1011.91 1012.25 1012.63 1012.79 1013.14 1013.33 1013.49 1013.67 1013.77 1013.77
1004.65 1005.00 1005.36 1005.99 1006.08 1006.22 1006.29 1006.41 1006.92 1007.25 1007.66 1008.23 1009.09 1009.08 1009.27 1009.76 1010.34 1010.88 1011.06 1011.46 1011.60 1011.42 1011.91 1012.19 1012.35 1013.01 1013.17 1013.35 1014.01 1014.24 1014.16 1013.76
1004.22 1004.73 1005.17 1005.42 1005.56 1005.80 1006.00 1006.18 1006.86 1007.57 1008.05 1008.41 1008.66 1009.08 1009.27 1009.83 1010.30 1010.70 1010.99 1011.31 1011.55 1011.52 1012.09 1012.44 1012.61 1012.90 1013.20 1013.70 1014.14 1014.38 1014.14 1013.81
1003.39 1004.17 1004.92 1005.32 1005.64 1005.85 1006.11 1006.49 1007.18 1007.77 1008.06 1008.54 1008.58 1009.05 1009.63 1009.70 1010.21 1010.65 1010.61 1010.97 1011.20 1011.21 1012.40 1012.52 1012.42 1012.85 1013.32 1013.74 1013.96 1014.07 1013.91 1013.77
1003.14 1003.90 1004.79 1005.51 1006.00 1006.14 1006.55 1006.61 1007.14 1007.73 1008.40 1008.72 1009.07 1009.56 1010.03 1009.76 1010.13 1010.32 1010.57 1010.74 1010.84 1011.04 1011.88 1012.28 1012.62 1012.92 1013.24 1013.45 1013.78 1014.08 1014.19 1014.03
1003.54 1004.27 1005.02 1005.38 1005.71 1006.21 1006.78 1006.88 1007.31 1007.73 1008.09 1008.40 1008.83 1009.52 1010.25 1010.33 1010.65 1010.75 1010.92 1010.85 1010.96 1011.28 1011.80 1012.27 1012.63 1012.97 1013.25 1013.64 1013.83 1014.10 1014.24 1013.93
1003.60 1004.24 1004.83 1005.44 1005.89 1006.26 1006.72 1007.28 1007.72 1007.88 1007.98 1008.53 1009.14 1009.84 1010.45 1010.91 1011.29 1011.21 1011.27 1011.16 1011.13 1011.41 1011.69 1012.17 1012.65 1012.80 1013.18 1013.54 1013.90 1014.34 1014.67 1014.22
1003.50 1004.08 1004.86 1005.47 1006.11 1006.73 1007.08 1007.02 1007.20 1008.34 1008.41 1008.82 1009.29 1009.72 1010.47 1011.41 1011.58 1011.70 1011.74 1011.60 1011.71 1011.98 1012.09 1012.44 1012.81 1013.14 1013.44 1013.86 1013.93 1014.22 1014.57 1014.57
1003.66 1004.45 1005.19 1006.15 1006.77 1007.40 1007.79 1007.99 1008.27 1008.70 1008.48 1008.91 1009.29 1010.20 1010.89 1011.52 1011.90 1012.01 1012.36 1012.39 1012.60 1012.85 1012.91 1013.08 1013.30 1013.67 1013.93 1014.16 1014.13 1014.12 1014.25 1014.40
1004.94 1005.49 1005.82 1006.47 1007.25 1007.57 1008.12 1008.60 1008.69 1008.93 1009.53 1009.57 1009.91 1010.79 1011.61 1011.87 1012.27 1012.60 1013.07 1013.42 1013.62 1013.47 1013.51 1013.75 1013.99 1014.18 1014.27 1014.43 1014.42 1014.48 1014.33 1014.37
1005.79 1006.40 1007.39 1007.91 1008.27 1008.30 1008.97 1008.98 1009.51 1009.77 1010.03 1010.65 1011.03 1011.39 1011.86 1012.39 1012.85 1013.27 1013.69 1013.98 1014.04 1014.05 1014.22 1014.33 1014.42 1014.49 1014.59 1014.67 1014.75 1014.55 1014.45 1014.52
1006.16 1006.21 1007.91 1008.03 1009.08 1009.44 1009.36 1009.95 1010.15 1010.71 1010.88 1011.41 1011.79 1011.87 1012.52 1013.16 1013.36 1013.62 1014.01 1014.27 1014.37 1014.53 1014.71 1014.73 1014.84 1014.74 1014.80 1014.83 1014.61 1014.52 1014.46 1014.45
1005.92 1006.79 1007.46 1008.83 1008.44 1010.33 1009.93 1010.63 1011.07 1011.50 1011.83 1012.30 1012.81 1012.87 1013.19 1013.56 1013.71 1013.96 1014.38 1014.65 1014.84 1015.17 1015.17 1015.08 1014.94 1014.91 1014.92 1014.71 1014.57 1014.53 1014.34 1014.25
1007.08 1007.70 1008.50 1009.08 1009.13 1010.26 1011.10 1011.17 1011.72 1012.16 1012.42 1012.67 1013.16 1013.52 1013.72 1013.91 1014.09 1014.40 1014.66 1014.92 1015.06 1015.14 1015.15 1015.16 1015.09 1015.02 1014.87 1014.65 1014.35 1014.01 1013.90 1013.70
1007.67 1008.41 1009.23 1010.02 1009.68 1010.41 1012.03 1012.34 1012.82 1013.00 1012.98 1013.20 1013.43 1013.67 1013.84 1013.99 1014.17 1014.37 1014.57 1014.84 1015.05 1015.14 1015.18 1015.13 1015.00 1014.65 1014.48 1014.30 1014.08 1013.84 1013.61 1013.41
1008.44 1009.12 1009.80 1010.38 1009.92 1010.67 1012.56 1012.97 1013.33 1013.77 1013.69 1013.83 1014.13 1014.15 1014.23 1014.36 1014.47 1014.46 1014.63 1014.90 1015.14 1015.29 1015.22 1015.05 1014.76 1014.51 1014.44 1014.29 1014.05 1013.74 1013.58 1013.39
Wind_Speed
13 10 10 11 12 9 11 11 8 7 7 6 4 3 4 5 9 7 5 4 4 3 3 3 3 8 3 5 5 3 5 4
9 13 14 14 14 14 11 10 11 9 6 5 5 4 3 3 4 6 5 4 4 4 3 4 4 3 4 4 3 4 4 4
5 8 10 13 14 12 13 12 10 7 9 10 11 10 7 5 5 6 5 5 5 4 4 3 4 3 3 3 1 1 2 4
13 9 14 15 13 15 12 13 13 13 10 9 6 4 6 5 5 6 7 4 5 5 5 4 3 2 3 4 4 3 2 2
14 17 17 18 16 16 16 16 13 13 8 5 4 3 5 8 5 5 7 5 5 4 3 3 3 4 5 3 3 4 4 3
9 14 15 13 14 15 15 14 11 5 7 8 5 5 4 3 5 3 4 6 7 4 3 3 4 3 3 3 2 1 1 2
9 14 14 16 17 17 16 12 8 7 6 4 5 4 4 4 4 4 6 5 6 4 4 3 4 4 3 3 1 2 3 3
10 15 14 14 14 14 7 4 6 5 4 2 2 3 4 3 4 5 8 7 7 4 4 4 5 4 3 3 3 4 3 2
9 12 12 11 8 7 5 6 6 5 2 3 1 2 2 1 3 5 4 4 5 5 4 5 4 5 4 4 2 3 2 2
10 11 12 12 11 8 6 5 6 5 4 3 2 3 3 4 2 4 3 3 4 4 5 4 5 4 5 4 2 1 2 1
12 14 13 10 10 11 7 5 3 4 5 4 4 5 3 3 3 4 5 5 5 4 4 3 4 3 3 2 1 1 2 2
12 15 13 13 7 7 7 9 10 4 6 4 5 3 5 3 3 4 5 8 10 8 5 2 3 3 2 1 1 1 2 2
15 12 12 11 10 8 6 6 7 4 8 7 7 10 6 4 4 9 8 8 9 8 8 7 7 4 5 5 4 2 2 2
13 12 13 13 10 10 8 9 9 7 8 7 11 12 8 7 5 7 5 4 4 7 7 6 6 5 4 4 4 4 3 3
14 15 13 11 10 11 9 10 11 9 10 10 9 9 9 8 6 5 5 3 3 6 5 6 4 4 4 4 3 4 4 3
15 15 15 15 12 8 12 10 11 10 10 9 7 8 6 5 5 5 4 4 3 3 4 4 4 3 2 3 2 3 2 3
16 15 15 11 15 7 11 10 9 8 8 7 6 6 7 6 7 6 4 3 3 3 3 2 3 4 4 4 3 5 4 3
13 13 12 11 14 10 8 9 8 7 7 7 6 6 6 6 6 6 6 4 4 3 1 1 3 3 4 4 4 5 5 4
13 12 11 10 14 15 10 9 8 6 6 5 7 5 5 5 4 3 4 3 3 2 2 3 4 5 6 5 6 6 6 7
10 11 13 14 14 16 10 8 9 6 6 6 5 4 4 4 2 3 3 4 1 2 3 4 5 5 6 6 6 6 7 8
Wind_Direction
149 156 157 157 151 167 164 147 122 133 133 155 168 167 171 178 178 171 159 154 172 173 180 191 204 210 206 211 210 210 216 223
170 160 151 157 165 170 158 148 146 155 145 148 179 179 192 187 187 163 162 167 177 186 193 193 205 210 198 206 217 224 249 273
181 157 154 157 167 168 166 162 163 169 177 171 181 176 180 171 166 190 178 194 182 175 203 191 208 186 192 197 229 254 252 240
141 155 163 172 170 174 171 179 175 175 194 190 177 198 139 154 180 200 182 170 199 190 193 198 194 182 170 188 216 227 233 197
174 171 175 173 183 176 181 183 189 181 181 157 133 168 179 173 182 183 182 167 241 216 185 163 176 190 189 155 143 143 138 132
176 182 176 177 171 187 187 189 189 138 128 140 162 182 166 164 148 132 209 194 209 198 132 106 113 94 104 126 98 59 78 136
178 182 181 178 186 185 194 197 185 141 136 151 146 159 151 126 139 156 220 212 215 187 108 139 144 147 151 141 141 195 205 225
185 177 180 184 188 190 204 125 115 136 127 97 70 89 85 127 148 183 200 190 203 152 124 140 142 133 160 170 186 211 220 248
166 168 172 171 179 171 199 144 146 143 123 105 132 162 115 165 184 177 167 168 156 137 129 136 158 160 173 175 170 211 268 238
149 148 166 180 184 171 158 162 152 170 175 135 125 119 114 89 81 90 134 127 120 127 136 155 161 150 159 172 134 52 285 173
151 158 171 163 174 187 171 137 177 179 137 98 72 94 91 80 45 53 36 63 86 82 81 122 151 137 163 154 200 214 278 342
154 157 154 163 167 115 110 166 141 185 130 136 161 134 120 84 86 85 61 54 56 46 59 106 85 72 50 325 73 177 152 265
142 143 108 94 95 88 89 87 78 94 119 134 111 96 97 106 90 88 69 52 49 57 58 59 57 48 42 36 12 347 190 210
92 91 98 100 92 94 88 84 64 60 77 82 105 115 121 107 88 86 70 65 50 49 51 50 47 40 28 7 7 9 359 318
105 96 95 93 92 94 76 80 77 64 72 78 86 96 99 100 98 102 99 73 44 40 43 39 28 16 17 15 7 9 8 354
126 122 125 111 100 92 92 92 89 74 79 70 74 81 81 90 102 101 97 92 76 48 51 53 48 42 28 14 356 339 328 318
122 122 122 114 110 104 100 101 90 93 92 93 82 89 94 102 95 92 93 97 108 109 99 70 350 333 324 330 317 302 305 279
119 123 121 124 109 104 78 83 85 86 91 90 95 98 98 107 113 118 129 140 138 148 156 272 301 297 296 300 294 298 304 290
126 121 109 98 103 94 91 76 81 79 88 96 103 104 104 101 106 121 148 154 185 214 250 307 313 316 310 311 300 292 290 292
114 120 124 115 106 96 87 86 78 60 74 82 83 106 127 135 154 180 185 198 243 302 310 306 304 306 303 300 290 291 288 289